Platteville, WI

10:52 PM CDT on April 26, 2017 (GMT -0500)
Platteville Municipal

Weather History for KPVB - November, 2012

Change the Weather History Date:

Friday, November 30, 2012

  Actual Average (KDBQ) Record (KDBQ)
Temperature  
Mean Temperature 38 °F -  
Max Temperature 44 °F 38 °F 63 °F (1998)
Min Temperature 32 °F 20 °F -9 °F (1976)
Degree Days  
Heating Degree Days 27    
Moisture  
Dew Point 33 °F    
Average Humidity 84    
Maximum Humidity 100    
Minimum Humidity 71    
Precipitation  
Precipitation 0.00 in - - ()
Sea Level Pressure  
Sea Level Pressure 30.09 in    
Wind  
Wind Speed 10 mph (NE)    
Max Wind Speed 15 mph    
Max Gust Speed 16 mph    
Visibility 5 miles    
Events      
Averages and records for this station are not official NWS values.
T = Trace of Precipitation, MM = Missing Value Source: NWS Daily Summary

Daily Weather History Graph

Daily Weather History Graph

Search for Another Location

Airport or City:

Trip Planner

Search our weather history database for the weather conditions in past years. The results will help you decide how hot, cold, wet, or windy it might be!

Date:

Astronomy

Nov. 30, 2012 Rise Set
Actual Time 7:11 AM CST 4:29 PM CST
Civil Twilight 6:40 AM CST 5:00 PM CST
Nautical Twilight 6:05 AM CST 5:35 PM CST
Astronomical Twilight 5:31 AM CST 6:09 PM CST
Moon 6:24 PM CST (11/30) 8:43 AM CST (11/30)
Length of Visible Light 10h 20m
Length of Day
9h 17m
Waning Gibbous, 96% of the Moon is Illuminated
Nov 30
Waning Gibbous
Dec 6
Last Quarter
Dec 13
New
Dec 19
First Quarter
Dec 28
Full

Hourly Weather History & Observations

Time (CST) Temp. Windchill Dew Point Humidity Pressure Visibility Wind Dir Wind Speed Gust Speed Precip Events Conditions
12:15 AM 37.4 °F 31.4 °F 32.0 °F 81% 30.04 in 10.0 mi ENE 8.1 mph - N/A   Overcast
12:35 AM 37.4 °F 32.8 °F 32.0 °F 81% 30.04 in 10.0 mi NE 5.8 mph - N/A   Overcast
12:55 AM 37.4 °F 31.4 °F 32.0 °F 81% 30.05 in 10.0 mi NE 8.1 mph - N/A   Overcast
1:15 AM 37.4 °F 31.4 °F 32.0 °F 81% 30.04 in 10.0 mi NE 8.1 mph - N/A   Overcast
1:35 AM 37.4 °F 30.8 °F 32.0 °F 81% 30.05 in 10.0 mi ENE 9.2 mph - N/A   Overcast
1:55 AM 37.4 °F 29.8 °F 32.0 °F 81% 30.04 in 10.0 mi ENE 11.5 mph - N/A   Overcast
2:15 AM 37.4 °F 32.1 °F 32.0 °F 81% 30.05 in 10.0 mi NE 6.9 mph - N/A   Overcast
2:35 AM 37.4 °F 29.8 °F 32.0 °F 81% 30.03 in 10.0 mi ENE 11.5 mph - N/A   Mostly Cloudy
2:55 AM 35.6 °F 27.5 °F 32.0 °F 87% 30.04 in 10.0 mi ENE 11.5 mph - N/A   Scattered Clouds
3:15 AM 35.6 °F 28.6 °F 32.0 °F 87% 30.04 in 10.0 mi ENE 9.2 mph - N/A   Scattered Clouds
3:35 AM 35.6 °F 27.5 °F 32.0 °F 87% 30.03 in 7.0 mi ENE 11.5 mph - N/A   Scattered Clouds
3:55 AM 35.6 °F 26.2 °F 32.0 °F 87% 30.01 in 7.0 mi ENE 15.0 mph - N/A   Scattered Clouds
4:15 AM 35.6 °F 28.0 °F 32.0 °F 87% 30.03 in 7.0 mi ENE 10.4 mph - N/A   Scattered Clouds
4:35 AM 35.6 °F 29.2 °F 32.0 °F 87% 30.03 in 7.0 mi NE 8.1 mph - N/A   Overcast
4:55 AM 35.6 °F 29.2 °F 32.0 °F 87% 30.04 in 5.0 mi NE 8.1 mph - N/A   Overcast
5:15 AM 35.6 °F 29.2 °F 32.0 °F 87% 30.05 in 5.0 mi NE 8.1 mph - N/A   Overcast
5:35 AM 35.6 °F 27.5 °F 32.0 °F 87% 30.04 in 5.0 mi ENE 11.5 mph - N/A   Scattered Clouds
5:55 AM 35.6 °F 28.0 °F 32.0 °F 87% 30.04 in 5.0 mi ENE 10.4 mph - N/A   Scattered Clouds
6:15 AM 35.6 °F 27.5 °F 32.0 °F 87% 30.05 in 5.0 mi ENE 11.5 mph - N/A   Scattered Clouds
6:35 AM 35.6 °F 27.1 °F 32.0 °F 87% 30.05 in 4.0 mi ENE 12.7 mph - N/A   Scattered Clouds
6:55 AM 35.6 °F 27.5 °F 33.8 °F 93% 30.06 in 4.0 mi NE 11.5 mph - N/A   Mostly Cloudy
7:15 AM 35.6 °F 28.6 °F 33.8 °F 93% 30.07 in 4.0 mi NE 9.2 mph - N/A   Mostly Cloudy
7:35 AM 35.6 °F 28.6 °F 33.8 °F 93% 30.07 in 3.0 mi ENE 9.2 mph - N/A   Overcast
7:55 AM 35.6 °F 28.0 °F 33.8 °F 93% 30.07 in 2.5 mi NE 10.4 mph - N/A   Overcast
8:15 AM 37.4 °F 30.3 °F 33.8 °F 87% 30.08 in 3.0 mi NE 10.4 mph - N/A   Overcast
8:35 AM 37.4 °F 30.8 °F 33.8 °F 87% 30.08 in 3.0 mi NE 9.2 mph - N/A   Overcast
8:55 AM 37.4 °F 29.8 °F 33.8 °F 87% 30.09 in 3.0 mi NE 11.5 mph - N/A   Overcast
9:15 AM 37.4 °F 29.8 °F 33.8 °F 87% 30.09 in 3.0 mi NE 11.5 mph 16.1 mph N/A   Overcast
9:35 AM 37.4 °F 29.3 °F 33.8 °F 87% 30.09 in 4.0 mi NE 12.7 mph - N/A   Overcast
9:55 AM 39.2 °F 31.6 °F 33.8 °F 81% 30.11 in 4.0 mi NE 12.7 mph - N/A   Overcast
10:15 AM 39.2 °F 31.6 °F 33.8 °F 81% 30.12 in 4.0 mi NE 12.7 mph - N/A   Overcast
10:35 AM 39.2 °F 32.0 °F 33.8 °F 81% 30.12 in 5.0 mi NE 11.5 mph - N/A   Overcast
10:55 AM 39.2 °F 33.0 °F 33.8 °F 81% 30.11 in 4.0 mi NE 9.2 mph - N/A   Overcast
11:15 AM 41.0 °F 34.7 °F 33.8 °F 76% 30.11 in 4.0 mi NE 10.4 mph - N/A   Overcast
11:35 AM 41.0 °F 34.7 °F 33.8 °F 76% 30.09 in 5.0 mi ENE 10.4 mph - N/A   Overcast
11:55 AM 41.0 °F 35.8 °F 33.8 °F 76% 30.09 in 5.0 mi NE 8.1 mph - N/A   Overcast
12:15 PM 42.8 °F 36.6 °F 35.6 °F 76% 30.08 in 5.0 mi NE 11.5 mph - N/A   Overcast
12:35 PM 42.8 °F 37.5 °F 35.6 °F 76% 30.08 in 5.0 mi NE 9.2 mph - N/A   Overcast
12:55 PM 42.8 °F 37.0 °F 35.6 °F 76% 30.08 in 5.0 mi NNE 10.4 mph - N/A   Mostly Cloudy
1:15 PM 42.8 °F 37.0 °F 35.6 °F 76% 30.08 in 4.0 mi NNE 10.4 mph 16.1 mph N/A   Mostly Cloudy
1:35 PM 42.8 °F 36.6 °F 35.6 °F 76% 30.08 in 5.0 mi NE 11.5 mph - N/A   Mostly Cloudy
1:55 PM 44.6 °F 39.2 °F 35.6 °F 71% 30.08 in 5.0 mi NE 10.4 mph - N/A   Mostly Cloudy
2:15 PM 44.6 °F 39.2 °F 35.6 °F 71% 30.08 in 5.0 mi NE 10.4 mph - N/A   Overcast
2:35 PM 42.8 °F 37.5 °F 35.6 °F 76% 30.09 in 5.0 mi NNE 9.2 mph - N/A   Overcast
2:55 PM 42.8 °F 36.6 °F 35.6 °F 76% 30.09 in 5.0 mi NE 11.5 mph - N/A   Overcast
3:15 PM 42.8 °F 37.5 °F 35.6 °F 76% 30.11 in 5.0 mi NE 9.2 mph - N/A   Overcast
3:35 PM 42.8 °F 39.3 °F 35.6 °F 76% 30.12 in 5.0 mi ENE 5.8 mph - N/A   Overcast
3:55 PM 42.8 °F 39.3 °F 35.6 °F 76% 30.13 in 5.0 mi NE 5.8 mph - N/A   Overcast
4:15 PM 41.0 °F 35.8 °F 35.6 °F 81% 30.12 in 5.0 mi NNE 8.1 mph - N/A   Overcast
4:35 PM 41.0 °F 35.8 °F 35.6 °F 81% 30.12 in 4.0 mi NE 8.1 mph - N/A   Scattered Clouds
4:55 PM 41.0 °F 36.4 °F 33.8 °F 76% 30.13 in 5.0 mi NNE 6.9 mph - N/A   Scattered Clouds
5:15 PM 37.4 °F 32.1 °F 33.8 °F 87% 30.13 in 5.0 mi NNE 6.9 mph - N/A   Clear
5:35 PM 37.4 °F 32.1 °F 33.8 °F 87% 30.13 in 5.0 mi NE 6.9 mph - N/A   Clear
5:55 PM 37.4 °F 32.8 °F 33.8 °F 87% 30.13 in 5.0 mi NE 5.8 mph - N/A   Clear
6:15 PM 35.6 °F 29.9 °F 32.0 °F 87% 30.14 in 5.0 mi NE 6.9 mph - N/A   Clear
6:35 PM 35.6 °F 29.9 °F 32.0 °F 87% 30.13 in 4.0 mi NE 6.9 mph - N/A   Clear
6:55 PM 33.8 °F 26.4 °F 32.0 °F 93% 30.13 in 4.0 mi ENE 9.2 mph - N/A   Clear
7:15 PM 33.8 °F 27.0 °F 32.0 °F 93% 30.13 in 4.0 mi ENE 8.1 mph - N/A   Clear
7:35 PM 33.8 °F 25.8 °F 32.0 °F 93% 30.13 in 4.0 mi ENE 10.4 mph - N/A   Clear
7:55 PM 33.8 °F 25.3 °F 32.0 °F 93% 30.13 in 4.0 mi East 11.5 mph - N/A   Clear
8:15 PM 33.8 °F 27.0 °F 32.0 °F 93% 30.13 in 4.0 mi East 8.1 mph - N/A   Clear
8:35 PM 33.8 °F 27.0 °F 32.0 °F 93% 30.13 in 4.0 mi East 8.1 mph - N/A   Clear
9:15 PM 32.0 °F 24.2 °F 32.0 °F 100% 30.12 in 3.0 mi East 9.2 mph - N/A   Clear
9:35 PM 33.8 °F 26.4 °F 32.0 °F 93% 30.13 in 3.0 mi East 9.2 mph - N/A   Clear
9:55 PM 33.8 °F 26.4 °F 32.0 °F 93% 30.13 in 4.0 mi East 9.2 mph - N/A   Mostly Cloudy
10:15 PM 33.8 °F 24.8 °F 32.0 °F 93% 30.13 in 3.0 mi East 12.7 mph - N/A   Overcast
10:35 PM 35.6 °F 26.6 °F 32.0 °F 87% 30.11 in 3.0 mi East 13.8 mph - N/A   Overcast
10:55 PM 35.6 °F 26.6 °F 32.0 °F 87% 30.12 in 3.0 mi East 13.8 mph - N/A   Overcast
11:15 PM 35.6 °F 28.0 °F 32.0 °F 87% 30.12 in 3.0 mi East 10.4 mph - N/A   Overcast
11:35 PM 35.6 °F 27.5 °F 32.0 °F 87% 30.12 in 3.0 mi East 11.5 mph - N/A   Overcast
11:55 PM 35.6 °F 26.6 °F 32.0 °F 87% 30.11 in 3.0 mi East 13.8 mph - N/A   Overcast